Location: Novo Ouro Preto
(19.8840°S, 43.9844°W)
Time: 08:32:09
(UTC+00:00)

Cosmos 2278 Rocket - Pass Details

Date: 18 September 2020
Orbit: 841 x 845 km, 71.0° (Epoch: 22 October)

Event Time Altitude Azimuth Distance (km) Brightness Sun altitude
Rises 22:31:29 0° 193° (SSW) 3,418 5.6 -24.3°
Reaches altitude 10° 22:33:58 10° 190° (S) 2,477 4.8 -24.9°
Enters shadow 22:39:05 61° 139° (SE) 952 2.2 -26.1°
